Regional Weather Roundup
Issued by NWS Charleston, SC

Current Version | Previous Version | Graphics & Text | Print | Product List | Glossary On
Versions: 1 2 3 4 5 6 7 8 9 10 11 12 13 14 15 16 17 18 19 20 21 22 23 24 25 26 27 28 29 30 31 32 33 34 35 36 37 38 39 40 41 42 43 44 45 46 47 48 49 50
000
ASUS42 KCHS 272112
RWRCHS

REGIONAL WEATHER ROUNDUP
NATIONAL WEATHER SERVICE CHARLESTON SC
500 PM EDT MON JUL 27 2015

NOTE: "FAIR" INDICATES FEW OR NO CLOUDS BELOW 12,000 FEET WITH NO
SIGNIFICANT WEATHER AND/OR OBSTRUCTIONS TO VISIBILITY.

NOT ALL STATIONS ARE QUALITY CONTROLLED BY THE NATIONAL
WEATHER SERVICE. USE DATA WITH CAUTION...ESPECIALLY
DEWPOINT OBSERVATIONS.

SCZ027-030-031-034>040-042>050-272200-
...SOUTHEAST SOUTH CAROLINA...

CITY           SKY/WX    TMP DP  RH WIND       PRES   REMARKS
N CHARLESTON   MOSUNNY   89  74  60 SE12      29.93S HX  98
WATERFRONT PRK   N/A     88  80  77 E12       29.91F HX 104
MOUNT PLEASANT LGT RAIN  88  77  70 E7        29.94S HX 100
JOHNS ISLAND   FAIR      88  79  74 E12       29.94S HX 102
PINOPOLIS      NOT AVBL
MONCKS CORNER  FAIR      91  73  55 S6        29.92F HX 100
SUMMERVILLE    FAIR      95  73  49 SE5       29.93S HX 105
BEAUFORT MCAS  MOSUNNY   89  74  60 E13       29.92F HX  98
BEAUFORT ARPT  FAIR      88  77  70 E6        29.92F HX 100
HILTON HEAD IS MOSUNNY   88  79  74 NE9       29.94F HX 102
WALTERBORO     PTCLDY    97  64  34 E6        29.92F HX  99
ALLENDALE      FAIR      93  66  40 CALM      29.91F HX  96

...SOUTHERN MIDLANDS AND PEE DEE...

CITY           SKY/WX    TMP DP  RH WIND       PRES   REMARKS
GEORGETOWN     NOT AVBL
KINGSTREE      NOT AVBL
ORANGEBURG     MOSUNNY   94  67  41 E10       29.93S HX  97
BARNWELL       FAIR      97  66  36 E10       29.92F HX 100
AIKEN          FAIR      93  59  31 NE6       29.96F HX  92
MANNING        FAIR      95  59  30 SE5       29.92S HX  94
COLUMBIA       MOSUNNY   97  63  32 E8        29.91F HX  98
SUMTER         MOSUNNY   96  67  39 E7        29.91F HX 100
FLORENCE       SUNNY     95  70  44 NE5       29.92F HX 101
MYRTLE BEACH   MOSUNNY   88  73  62 E12G20    29.98S HX  96
N MYRTLE BEACH SUNNY     86  75  69 E17       29.96F HX  95

$$

GAZ063-065-086>088-099>101-113>116-118-119-134>141-150-272200-
...SOUTHEAST GEORGIA...

CITY           SKY/WX    TMP DP  RH WIND       PRES   REMARKS
SAVANNAH ARPT  LGT RAIN  87  78  74 E10       29.92F HX 100
HUNTER AAF     MOSUNNY   88  79  73 E8        29.90F HX 102
FORT STEWART   MOSUNNY   89  75  63 E13       29.90S HX  98
STATESBORO     FAIR      95  69  42 NE9       29.91F HX 101
SYLVANIA       CLEAR     95  70  43 E9        29.92F HX 101
CLAXTON        FAIR      91  68  46 E5        29.91F HX  95

...CSRA...CENTRAL AND FAR SOUTHEAST GEORGIA...

CITY           SKY/WX    TMP DP  RH WIND       PRES   REMARKS
THOMSON        SUNNY     99  66  34 SE3       29.96F HX 102
AUGUSTA-BUSH   SUNNY     98  63  31 E9        29.90F HX 100
AUGUSTA-DANIEL MOSUNNY   99  64  31 VRB6      29.92F HX 101
SWAINSBORO     FAIR      97  64  34 CALM      29.93S HX  99
VIDALIA        MOSUNNY   97  63  32 E12       29.92S HX  98
EASTMAN        FAIR      96  65  35 E5        29.94S HX  98
HAZLEHURST     FAIR      95  63  34 E10       29.90F HX  96
ALMA           MOSUNNY   88  75  65 SE10      29.92F HX  97
WAYCROSS       CLOUDY    83  81  94 SE6       29.93F HX  95
JESUP          MOCLDY    90  81  74 SE6       29.92F HX 108
BAXLEY         FAIR      95  72  46 SE5G17    29.91S HX 103
BRUNSWICK      PTSUNNY   86  75  70 NE9       29.93S HX  95
SAINT SIMONS   MOSUNNY   85  77  77 E12       29.92S HX  95

$$

SCZ027-028-034-036>038-045-046-048>050-GAZ119-141-272200-
...LAKE AND SUPPLEMENTAL COASTAL OBSERVATIONS...

STATION/POSITION TIME  TEMP    WIND        PRES    WAVE   SWELL
                       AIR SEA DIR/SP/G            HT/PER HT/PER/DIR
                 (UTC) (F)     (DEG/KT/KT) (MB)    (FT/S) (FT/S/D)
UPR LAKE MARION  NOT AVBL
WINYAH BAY       NOT AVBL
LAKE MURRAY      2000   92     210/  6/  9 1012.9F
ACE BASIN NERRS  NOT AVBL
FORT PULASKI     2000   83 85   70/ 13/ 15 1014.0F
SAPELO ISLAND    2000   86      60/  9     1013.0F

$$

ANZ835-935-AMZ111-154-330-350-352-354-370-450-454-472-272200-
...C-MAN AND BUOY OBSERVATIONS...

STATION/POSITION TIME  TEMP    WIND        PRES    WAVE   SWELL
                       AIR SEA DIR/SP/G            HT/PER HT/PER/DIR
                 (UTC) (F)     (DEG/KT/KT) (MB)    (FT/S) (FT/S/D)
BUOY 41004       2050   84 85   70/ 12/ 14 1012.8F   2/11   2/11
BUOY 41008       2050   82 82   80/  8/ 10 1013.2F   2/11   2/130/11
FOLLY BEACH CMAN 2000   83      80/ 12/ 13 1014.1F
CAPERS NEARSHORE 2008   82      90/ 10/ 14 1014.0F
FRIPP NEARSHORE  2000   84      90/ 12/ 12 1013.4F


STATION/POSITION TIME  TEMP    WIND        PRES    WAVE   SWELL
                       AIR SEA DIR/SP/G            HT/PER HT/PER/DIR
                 (UTC) (F)     (DEG/KT/KT) (MB)    (FT/S) (FT/S/D)
5E ST. MARYS GA  2021      82                N/A     2/ 6
FRYING PAN BUOY  2050   84 84  100/ 14/ 17 1014.6F   3/ 5   2/120/11
BUOY 41025       NOT AVBL
CAPE LOOKOUT NC  2000   82     110/  9/ 10 1015.4F
BUOY 41002       2050   78 82  240/  6/ 10 1015.9F   5/ 6   5/200/ 6
BUOY 41010       2020   83 84  200/ 17/ 19 1014.7F
ST AUGUSTINE FL  2100   81 83  150/ 10/ 11 1013.8F


$$



USA.gov is the U.S. government's official web portal to all federal, state and local government web resources and services.